Weather Roundup
Issued by NWS

Home | Current Version | Previous Version | Graphics & Text | Print | Product List | Glossary Off
Versions: 1 2 3 4 5 6 7 8 9 10 11 12 13 14 15 16 17 18 19 20 21 22 23 24 25 26 27 28 29 30 31 32 33 34 35 36 37 38 39 40 41 42 43 44 45 46 47 48 49 50

000
NZUS93 KARX 270859
HRRWXR

CURRENT HOURLY OBSERVATIONS ACROSS
MUCH OF THE UPPER MISSISSIPPI VALLEY
NATIONAL WEATHER SERVICE LA CROSSE WI
300 AM CST THU NOV 27 2014


...SOUTHEAST MINNESOTA...


CITY           SKY/WX    TMP DP  RH WIND       PRES   REMARKS
ROCHESTER      PTCLDY    11   3  70 N18       30.35S WCI  -7
ROCHESTER/MAYO FAIR      11   2  67 NW10G17   30.37R WCI  -2
WINONA         FLURRIES  19  14  79 NW14      30.38R WCI   6
AUSTIN         PTCLDY     9   0  66 NW12      30.38R WCI  -6
ALBERT LEA     CLEAR      3  -2  78 NW8       30.40R WCI -10
DODGE CENTER   PTCLDY     7   1  78 NW10      30.37R WCI  -8
PRESTON        FLURRIES  13   9  84 N13       30.34R WCI  -2
OWATONNA       PTCLDY     0  -8  71 W8        30.41R WCI -15
FARIBAULT      PTCLDY     3  -6  66 NW7       30.42R WCI  -9
$$

...ELSEWHERE IN MINNESOTA...


CITY           SKY/WX    TMP DP  RH WIND       PRES   REMARKS
MINNEAPOLIS    CLEAR      4  -4  69 N14       30.46R WCI -14
INTNL FALLS    PTCLDY   -16 -22  74 NW3       30.45R
DULUTH         CLEAR     -6 -11  79 NW5       30.37R WCI -17
RED WING         N/A      9  -2  61 N8        30.42R WCI  -4
REDWOOD FALLS  PTCLDY    -4  -9  79 NW10      30.51S WCI -21
MANKATO        PTCLDY     0  -9  65 NW10      30.45S WCI -17
WORTHINGTON    PTCLDY    -6  -9  84 N8        30.45S WCI -21
FAIRMONT       PTCLDY    -2  -9  71 NW16      30.44R WCI -23
$$

...SOUTHWEST WISCONSIN...


CITY           SKY/WX    TMP DP  RH WIND       PRES   REMARKS
LA CROSSE      CLOUDY    20  13  74 N8        30.35R WCI  10
PRAIRIE DU CHI CLOUDY    25  19  77 NW12      30.33R WCI  14
BOSCOBEL       LGT SNOW  25  18  74 NW6       30.32R WCI  18
LONE ROCK      NOT AVBL
PLATTEVILLE    CLOUDY    24  20  85 NW5       30.29R WCI  18
FORT MC COY    CLOUDY    20  16  83 NW7       30.32R WCI  11
CAMP DOUGLAS   LGT SNOW  21  21 100 NW8       30.29R FOG     WCI  12
VIROQUA        CLOUDY    21  17  85 NW8       30.27R WCI  12
WIS DELLS      CLOUDY    23  19  87 NW6       30.26R WCI  15
$$

...ELSEWHERE IN WISCONSIN...


CITY           SKY/WX    TMP DP  RH WIND       PRES   REMARKS
MILWAUKEE      CLOUDY    24  18  77 NW9       30.22R WCI  14
MADISON        CLOUDY    23  19  85 NW8       30.26R WCI  14
GREEN BAY      LGT SNOW  24  20  84 N9        30.23R FOG     WCI  14
EAU CLAIRE     NOT AVBL
BLACK RVR FLS  CLOUDY    19  14  79 NW9       30.32R WCI   9
MEDFORD        CLOUDY    12   8  82 NW9       30.26R WCI   0
WAUSAU         FLURRIES  16  11  80 NW6       30.24R WCI   7
WIS RAPIDS     CLOUDY    18  11  74 NW9       30.29R WCI   7
MARSHFIELD     CLOUDY    16  11  80 NW12      30.27R WCI   3
RICE LAKE      CLEAR      4  -2  75 NW6       30.40R WCI  -7
$$

...NORTHEAST IOWA...


CITY           SKY/WX    TMP DP  RH WIND       PRES   REMARKS
DECORAH        CLOUDY    21  16  79 N10G18    30.31S WCI  10
MASON CITY     CLEAR      4  -1  80 NW14      30.42R WCI -14
CHARLES CITY   CLOUDY    14  10  85 NW15      30.37R WCI  -1
OELWEIN        FLURRIES  19  16  86 NW20      30.34R WCI   4
$$

...ELSEWHERE IN IOWA...


CITY           SKY/WX    TMP DP  RH WIND       PRES   REMARKS
DES MOINES     FLURRIES  18  12  77 N16       30.44R WCI   3
IOWA CITY      CLOUDY    26  21  81 NW15      30.37R WCI  14
FORT DODGE     CLEAR      3  -4  72 NW6       30.46R WCI  -8
$$

...NORTHERN ILLINOIS...


CITY           SKY/WX    TMP DP  RH WIND       PRES   REMARKS
CHICAGO-OHARE  CLOUDY    24  17  74 NW16      30.22R WCI  11
CHICAGO-MIDWAY FLURRIES  28  21  75 NW10      30.22R WCI  19
MOLINE         CLOUDY    25  20  81 NW8       30.32R WCI  16
ROCKFORD       CLOUDY    21  16  81 NW8       30.28R HAZE    WCI  11
PEORIA         CLOUDY    25  18  74 NW3       30.31R
$$

NOTE: "FAIR" INDICATES FEW OR NO CLOUDS BELOW 12,000 FEET WITH NO
SIGNIFICANT WEATHER AND/OR OBSTRUCTIONS TO VISIBILITY. WIND
SPEEDS ARE IN MILES-PER-HOUR.



USA.gov is the U.S. government's official web portal to all federal, state and local government web resources and services.